Submittal Forms
Current Contests
Recent Contests

Club Activity Tracker - Orca DX and Contest Club (from club selection on form)

Recent postings for the selected club or group are listed below. Other than the call used, all calls listed are only those associated with the club or group. Click on a call to see the details of the posting.
Status Key: new=new posting, update=update prior posting, move=change club/group, delete=delete prior posting.

Sort by   for past

TimestampCallContestClassPowerScoreStatus
2021-05-15 05:21:16VE7IOKRC SSTSingle OpHP704new6426
2021-05-14 21:03:08VE7XTKRC SSTSingle OpHP1,350new6426
2021-05-13 17:35:19VE7KAJVolta RTTYSOSB/20HP1,059,950new6411
2021-05-13 04:09:38VE7XTCWopsTSingle OpHP3,712new6421
2021-05-13 04:03:37VE7KWCWopsTSingle OpHP13,225new6421
2021-05-13 03:36:44VE7NZCWopsTSingle OpHP196new6421
2021-05-12 20:04:08VE7XTCWopsTSingle OpHP2,209new6420
2021-05-12 20:03:23VE7NZCWopsTSingle OpHP7,056new6420
2021-05-12 13:56:37VE7XTCWopsTSingle OpHP930new6419
2021-05-10 18:02:43VE7CV7QPSO(A)MixedHP30,800new6394
 
2021-05-10 04:05:00VA7RR7QPSOMixedHP237,688new6394
2021-05-09 19:00:12VE7IOCQ-MSOABCWHP1,547new6412
2021-05-09 13:33:10VA7STVolta RTTYSOABHP2,433,816new6411
2021-05-09 05:26:19VE7BCArQPSOCWLP12new6413
2021-05-09 02:32:23VE7CVArQPSOMixedLP3,502new6413
2021-05-07 20:30:15VE7XTKRC SSTSingle OpHP300new6410
2021-05-06 04:03:29VE7KWCWopsTSingle OpHP16,129new6404
2021-05-06 04:01:53VE7XTCWopsTSingle OpHP3,392new6404
2021-05-06 03:50:00VE7NZCWopsTSingle OpHP1,764new6404
2021-05-05 21:23:12VE7XTCWopsTSingle OpLP529new6403
 
2021-05-05 21:12:04VE7IOCWopsTSingle OpHP625new6403
2021-05-05 20:13:26VA7DX(@VE7SCC)CWopsTSingle OpHP19,044new6403
2021-05-05 20:04:24VE7KWCWopsTSingle OpHP8,836new6403
2021-05-05 20:01:44VE7NZCWopsTSingle OpHP11,449new6403
2021-05-05 14:04:26VE7KWCWopsTSingle OpHP3,348new6402
2021-05-05 14:02:18VE7XTCWopsTSingle OpHP2,544new6402
2021-05-03 21:25:12VE7BC7QPSO(A)MixedLP15,624new6394
2021-05-03 21:07:36VE7BCNewEngQPSingle OpLP935new6397
2021-05-03 20:50:29VE7BCInQPSingle OpLP135new6395
2021-05-03 19:55:55VE7BCDeQPSingle OpLP370new6396
 
2021-05-03 18:46:58VE7KAJFlQPSOABCWLP1,428new6375
2021-05-03 18:17:09VE7IOInQPSingle OpLP2new6395
2021-05-03 18:14:34VE7IONewEngQPSingle OpHP1,748new6397
2021-05-03 18:12:16VE7IO7QPSOCWLP3,276new6394
2021-05-03 06:43:23N7RO7QPSOCWHP101,304new6394
2021-05-03 00:52:17VE7XTKRC SSTSingle OpHP425new6398
2021-05-02 18:27:31VE7ADA(@VE7SCC)ARISO SSBHP2,808new6393
2021-05-02 18:01:51VA7RN7QPSOCWLP20,944new6394
2021-04-30 21:09:35VE7XTKRC SSTSingle OpHP1,904new6391
2021-04-29 04:08:48VE7KWCWopsTSingle OpHP15,376new6386
 
2021-04-29 04:05:01VE7XTCWopsTSingle OpHP3,132new6386
2021-04-29 04:01:03VE7NZCWopsTSingle OpHP9,801new6386
2021-04-28 22:15:10VE7NZCWopsTSingle OpHP11,025new6385
2021-04-28 20:10:26VA7DX(@VE7CVM)CWopsTSingle OpHP19,321new6385
2021-04-28 20:06:36VE7KW(@VE7SCC)CWopsTSingle OpLP6,561new6385
2021-04-28 20:04:07VE7XTCWopsTSingle OpHP729new6385
2021-04-28 14:01:20VE7XTCWopsTSingle OpHP928new6384
2021-04-26 20:21:29VA7KOFlQPSOAB(A)CWLP2,816new6375
2021-04-26 01:27:16VE7XTKRC SSTSingle OpHP714new6380
2021-04-25 23:25:20VA7RNFlQPSOABCWLP8,784new6375
 
2021-04-25 22:51:26VA7STBARTG 75Single OpHP728new6374
2021-04-25 22:39:27VE7CVFlQPSOABMixedHP11,505new6375
2021-04-25 22:38:23VE7IOFlQPSOABCWHP3,024new6375
2021-04-25 22:18:28VE7BCFlQPSOAB(A)MixedLP6,512new6375
2021-04-22 04:10:02VE7NZCWopsTSingle OpHP9,216new6366
2021-04-22 04:04:12VE7XTCWopsTSingle OpHP2,025new6366
2021-04-22 04:02:40VE7CCCWopsTSingle OpHP16,891new6366
2021-04-21 20:54:43VE7IOCWopsTSingle OpHP900new6365
2021-04-21 20:44:20VE7NZCWopsTSingle OpHP6,241new6365
2021-04-21 20:18:52VA7DX(@VE7SCC)CWopsTSingle OpHP21,025new6365
 
2021-04-21 20:03:36VE7XTCWopsTSingle OpHP2,916new6365
2021-04-21 20:03:11VE7CCCWopsTSingle OpHP3,600new6365
2021-04-21 13:40:07VE7XTCWopsTSingle OpHP400new6364
2021-04-20 03:19:43VA7KOOnQPSO CWLP648new5642
2021-04-19 22:40:21VA7BECMiQPSingle OpLP20new6357
2021-04-19 22:38:40VA7BECOnQPSO SSBLP128new5642
2021-04-19 02:14:49VE7BCMiQPM/SLP198new6357
 (@VE7BC)
2021-04-19 02:00:06VE7XTKRC SSTSingle OpHP459new6358
2021-04-19 01:08:23VE7BCOnQPSO MixedLP162new5642
2021-04-18 18:53:20VE7CVOnQPSO MixedLP3,645new5642
 
2021-04-18 17:47:40VA7RNMiQPSingle OpLP1,998new6357
2021-04-16 21:03:14VE7XTKRC SSTSingle OpHP1,650new6351
2021-04-15 16:05:18VE7CCCWopsTSingle OpHP6,724update6346
2021-04-15 04:03:44VE7KWCWopsTSingle OpHP11,236new6347
2021-04-15 04:02:58VE7CCCWopsTSingle OpHP11,433new6347
2021-04-15 04:02:25VE7XTCWopsTSingle OpHP4,320new6347
2021-04-15 04:02:04VE7NZCWopsTSingle OpHP2,254new